This is the latest recevied weather packets stored in our database for station/object K3JSE-2. If no packets are shown the sender has not sent any weather packets the latest 10 day(s).
| Time | Temp. | Humidity | Pressure | Rain* | Wind** | Luminosity | Snow |
|---|---|---|---|---|---|---|---|
| 1777752281 | 13.89° C | 39% | 1011.4 hPa | 0 mm | - | - | - |
| 1777752215 | 13.89° C | 43% | 1011.4 hPa | 0 mm | - | - | - |
| 1777752008 | 13.89° C | 39% | 1011.5 hPa | 0 mm | - | - | - |
| 1777751721 | 14.44° C | 39% | 1011.5 hPa | 0 mm | - | - | - |
| 1777751543 | 15° C | 40% | 1011.4 hPa | 0 mm | - | - | - |
| 1777751468 | 15° C | 39% | 1011.5 hPa | 0 mm | - | - | - |
| 1777751226 | 15° C | 34% | 1011.5 hPa | 0 mm | - | - | - |
| 1777750968 | 15° C | 37% | 1011.6 hPa | 0 mm | - | - | - |
| 1777750830 | 15° C | 37% | 1011.6 hPa | 0 mm | - | - | - |
| 1777750718 | 15° C | 38% | 1011.7 hPa | 0 mm | - | - | - |
| 1777750471 | 13.89° C | 41% | 1011.8 hPa | 0 mm | - | - | - |
| 1777750181 | 13.89° C | 39% | 1012 hPa | 0 mm | - | - | - |
| 1777750050 | 13.89° C | 41% | 1012 hPa | 0 mm | - | - | - |
| 1777749893 | 14.44° C | 38% | 1012 hPa | 0 mm | - | - | - |
| 1777749620 | 15.56° C | 41% | 1012.1 hPa | 0 mm | - | - | - |
| 1777749425 | 15.56° C | 35% | 1012.1 hPa | 0 mm | - | - | - |
| 1777749341 | 15.56° C | 47% | 1012.1 hPa | 0 mm | - | - | - |
| 1777749078 | 15° C | 40% | 1012.2 hPa | 0 mm | - | - | - |
| 1777748803 | 14.44° C | 39% | 1012.2 hPa | 0 mm | - | - | - |
| 1777748735 | 14.44° C | 40% | 1012.2 hPa | 0 mm | - | - | - |
| 1777748545 | 14.44° C | 39% | 1012.3 hPa | 0 mm | - | - | - |
| 1777748273 | 15° C | 37% | 1012.4 hPa | 0 mm | - | - | - |
| 1777747998 | 15° C | 38% | 1012.5 hPa | 0 mm | - | - | - |
| 1777747980 | 14.44° C | 38% | 1012.5 hPa | 0 mm | - | - | - |
| 1777747698 | 13.33° C | 40% | 1012.6 hPa | 0 mm | - | - | - |
* Rain latest hour (hover to see other rain measurements)
** Current wind speed in m/s (hover to see current wind gust speed)